TITAN 3C TRANSTAGE DEB, 20672

Orbit data source: Space-Track

TITAN 3C TRANSTAGE DEB, 20672 is space debris in HEO originally from a launch on Tue, 21 Dec 1965 UTC launched from the Air Force Eastern Test Range (AFETR). Debris objects in space refer to the collection of defunct objects orbiting the Earth. Examples of debris include non-operational satellites, rocket bodies, and fragments generated from explosions, collisions, or faulty payload assembly.

Loading next visibility...
Identifier
20672, 1965-108AD
Orbit
HEO
Last TLE update
3 days ago
Origin
Manufacturer
Unknown
Mission
Spacecraft
Bus & Motor
Unknown
Mass
Unknown
Launch date (UTC)
1965-12-21 (60 years ago)
Launch vehicle
Unknown
Launch site
Air Force Eastern Test Range (AFETR)
Object type
Payload
Rocket body
Debris
Shape & HBR
Unknown
Radar Cross Section
Small (<0.1 m²)

Expand to show TLE details & history

TLE from 3 days ago
0 TITAN 3C TRANSTAGE DEB
1 20672U 65108AD  25179.78650574 -.00000155  00000-0  18076-3 0  9990
2 20672  27.1905 358.7860 6803362  64.2490   7.8328  2.70051522 37971
Epoch: 2025-06-28T18:52Z
TLE epoch observation values (Epoch: 2025-06-28T18:52:34.095Z)
Latitude
24.77638°
Longitude
-84.8696°
Altitude
1,735.825 km
Speed
8.944 km/s
True Right ascension
07h 41m 34s
True Declination
24° 39' 42"
Sunlit
Object was in daylight at epoch
Visualization orbit readout
Latitude
-0.23066°
Longitude
156.99392°
Altitude
2,821.716 km
Speed
8.267 km/s
Apparent Right ascension
01h 57m 16s
Apparent Declination
-28° 59' 20"
Sunlit
Object is in daylight
Visualization observer readout
Local Sidereal Time
20:15:11
Azimuth
115.479° SE
Elevation
-14.986°
Doppler factor
1
Orbital elements
Apogee altitude
30,229.43 km
Perigee altitude
586.013 km
Semi-major axis
21,785.859 km
Eccentricity
0.68034
Inclination
27.1905°
RAAN
358.786°
Arg. of periapsis
64.249°
True anomaly
Unknown
Mean anomaly
7.8328°
Eccentric anomaly
Unknown
Mean motion
0.67496 °/min
Orbital period
533.36 mins
BSTAR
0.00018076
Loading maneuver chart data...
Loading SW <> Apogee altitude chart data...

TITAN 3C TRANSTAGE DEB Visibility forecast

Observer location: undefined°, undefined°

Span
Click to sort rows by Start time (UTC) header in descending order
Start Az.
Max El. time (UTC)
Max El. Az.
Max El.
End time (UTC)
End Az.
8 mins2025-07-01 17:49:02.680Z215.165° SW2025-07-01 17:52:02.680Z161.114° S19.644°2025-07-01 17:57:02.680Z115.04° SE
120 mins2025-07-02 03:39:02.680Z232.954° WSW2025-07-02 04:18:02.680Z220.528° SW12.948°2025-07-02 05:39:02.680Z215.736° SW
|